カタログに戻る

ONEWEB-0423

運用中通信PO
NORAD 51627·PAYLOAD·🇬🇧 United Kingdom

打ち上げ Feb 10, 2022 から Guiana Space Centre

Loading…

次のパス (今後24時間)

TLE

最新Source: CelesTrak SupGP

元期: Sep 14, 2026, 20:21 UTC

1 51627C 22012F   26257.84845324 -.00002879  00000+0 -74235-2 0  2575
2 51627  87.9202 348.0593 0001949 104.7814   4.9677 13.17651818    16

AllMySatでONEWEB-0423をリアルタイム追跡

Download on the App Store